When you browse on this site, cookies collect data to enhance your experience and personalize the content and advertising you see.
Visit our Privacy Policy to learn more. By continuing to use the site, you agree to this use of cookies and data.
  • In Belgium
  • List of Countries
  • For 7 days
  • Water Temperature
  • Satellite Maps
  • Weather Map
  • Weather Widgets
  • user-avatar
    Login

    Hourly Weather Vyazovaya Dubrava

    Today, 24 April, Wednesday

    Time Temperature Precipitation Wind Pressure Humidity
    00:00 +12°C° 0 mm 3 mps 751 mmHg 55%
    01:00 +12°C° 0 mm 3 mps 751 mmHg 57%
    02:00 +11°C° 0 mm 3 mps 751 mmHg 59%
    03:00 +12°C° 0 mm 2 mps 751 mmHg 60%
    04:00 +10°C° 0 mm 2 mps 751 mmHg 62%
    05:00 +10°C° 0 mm 2 mps 751 mmHg 64%
    06:00 +10°C° 0 mm 2 mps 752 mmHg 66%
    07:00 +12°C° 0 mm 2 mps 752 mmHg 61%
    08:00 +13°C° 0 mm 3 mps 752 mmHg 57%
    09:00 +16°C° 0 mm 3 mps 752 mmHg 50%
    10:00 +17°C° 0 mm 3 mps 752 mmHg 46%
    11:00 +18°C° 0 mm 4 mps 752 mmHg 42%
    12:00 +20°C° 0 mm 4 mps 752 mmHg 38%
    13:00 +20°C° 0 mm 4 mps 752 mmHg 37%
    14:00 +21°C° 0 mm 4 mps 752 mmHg 36%
    15:00 +22°C° 0 mm 3 mps 751 mmHg 33%
    16:00 +22°C° 0 mm 3 mps 751 mmHg 35%
    17:00 +21°C° 0 mm 2 mps 751 mmHg 37%
    18:00 +21°C° 0 mm 2 mps 751 mmHg 40%
    19:00 +20°C° 0 mm 2 mps 751 mmHg 43%
    20:00 +18°C° 0 mm 2 mps 751 mmHg 47%
    21:00 +16°C° 0 mm 2 mps 751 mmHg 51%
    22:00 +16°C° 0 mm 2 mps 751 mmHg 53%
    23:00 +15°C° 0 mm 2 mps 751 mmHg 55%

    Tomorrow, 25 April, Thursday

    Time Temperature Precipitation Wind Pressure Humidity
    00:00 +14°C° 0 mm 2 mps 751 mmHg 57%
    01:00 +14°C° 0 mm 2 mps 751 mmHg 58%
    02:00 +14°C° 0 mm 2 mps 751 mmHg 60%
    03:00 +13°C° 0 mm 2 mps 751 mmHg 61%
    04:00 +13°C° 0 mm 2 mps 751 mmHg 62%
    05:00 +13°C° 0 mm 2 mps 751 mmHg 63%
    06:00 +12°C° 0 mm 2 mps 751 mmHg 64%
    07:00 +14°C° 0 mm 2 mps 751 mmHg 59%
    08:00 +16°C° 0 mm 2 mps 751 mmHg 54%
    09:00 +18°C° 0 mm 2 mps 751 mmHg 48%
    10:00 +19°C° 0 mm 2 mps 751 mmHg 44%
    11:00 +21°C° 0 mm 2 mps 751 mmHg 40%
    12:00 +23°C° 0 mm 2 mps 751 mmHg 35%
    13:00 +24°C° 0 mm 2 mps 751 mmHg 34%
    14:00 +24°C° 0 mm 2 mps 751 mmHg 33%
    15:00 +25°C° 0 mm 2 mps 750 mmHg 32%
    16:00 +24°C° 0 mm 2 mps 750 mmHg 34%
    17:00 +24°C° 0 mm 2 mps 750 mmHg 36%
    18:00 +24°C° 0 mm 2 mps 749 mmHg 39%
    19:00 +21°C° 0 mm 2 mps 749 mmHg 42%
    20:00 +19°C° 0 mm 2 mps 749 mmHg 46%
    21:00 +18°C° 0 mm 2 mps 749 mmHg 50%
    22:00 +17°C° 0 mm 2 mps 749 mmHg 52%
    23:00 +16°C° 0 mm 2 mps 749 mmHg 54%

    Day after tomorrow, 26 April, Friday

    Time Temperature Precipitation Wind Pressure Humidity
    00:00 +16°C° 0 mm 2 mps 749 mmHg 56%
    01:00 +15°C° 0 mm 2 mps 749 mmHg 58%
    02:00 +15°C° 0 mm 2 mps 749 mmHg 59%
    03:00 +14°C° 0 mm 2 mps 749 mmHg 61%
    04:00 +14°C° 0 mm 2 mps 748 mmHg 62%
    05:00 +14°C° 0 mm 1 mps 748 mmHg 64%
    06:00 +14°C° 0 mm 1 mps 748 mmHg 66%
    07:00 +15°C° 0 mm 1 mps 748 mmHg 61%
    08:00 +18°C° 0 mm 1 mps 749 mmHg 56%
    09:00 +20°C° 0 mm 1 mps 749 mmHg 51%
    10:00 +21°C° 0 mm 1 mps 749 mmHg 47%
    11:00 +23°C° 0 mm 1 mps 749 mmHg 42%
    12:00 +22°C° 0 mm 0 mps 749 mmHg 38%
    13:00 +22°C° 0 mm 0 mps 748 mmHg 40%
    14:00 +21°C° 0 mm 0 mps 748 mmHg 41%
    15:00 +21°C° 0 mm 0 mps 748 mmHg 43%
    16:00 +20°C° 0 mm 0 mps 747 mmHg 45%
    17:00 +20°C° 0 mm 0 mps 747 mmHg 47%
    18:00 +19°C° 0 mm 0 mps 747 mmHg 49%
    19:00 +18°C° 0.6 mm 0 mps 747 mmHg 54%
    20:00 +19°C° 0.6 mm 1 mps 747 mmHg 60%
    21:00 +16°C° 0.6 mm 1 mps 747 mmHg 65%
    22:00 +16°C° 0.2 mm 1 mps 747 mmHg 67%
    23:00 +15°C° 0.2 mm 1 mps 746 mmHg 70%

    27 April, Saturday

    Time Temperature Precipitation Wind Pressure Humidity
    00:00 +14°C° 0.2 mm 0 mps 746 mmHg 72%
    01:00 +14°C° 0 mm 1 mps 746 mmHg 73%
    02:00 +14°C° 0 mm 1 mps 746 mmHg 74%
    03:00 +13°C° 0 mm 1 mps 746 mmHg 75%
    04:00 +13°C° 0 mm 1 mps 745 mmHg 76%
    05:00 +13°C° 0 mm 2 mps 745 mmHg 76%
    06:00 +13°C° 0 mm 2 mps 745 mmHg 77%
    07:00 +15°C° 0 mm 2 mps 745 mmHg 71%
    08:00 +17°C° 0 mm 3 mps 745 mmHg 65%
    09:00 +18°C° 0 mm 3 mps 745 mmHg 59%
    10:00 +20°C° 0 mm 3 mps 744 mmHg 53%
    11:00 +21°C° 0 mm 4 mps 744 mmHg 47%
    12:00 +22°C° 0 mm 4 mps 744 mmHg 41%
    13:00 +22°C° 0 mm 4 mps 744 mmHg 41%
    14:00 +22°C° 0 mm 4 mps 743 mmHg 42%
    15:00 +22°C° 0 mm 4 mps 743 mmHg 42%
    16:00 +21°C° 0 mm 4 mps 742 mmHg 47%
    17:00 +20°C° 0 mm 3 mps 742 mmHg 52%
    18:00 +19°C° 0 mm 3 mps 742 mmHg 58%
    19:00 +18°C° 0 mm 3 mps 742 mmHg 60%
    20:00 +17°C° 0 mm 3 mps 741 mmHg 63%
    21:00 +16°C° 0 mm 3 mps 741 mmHg 66%
    22:00 +16°C° 0 mm 3 mps 741 mmHg 67%
    23:00 +14°C° 0 mm 3 mps 741 mmHg 68%

    28 April, Sunday

    Time Temperature Precipitation Wind Pressure Humidity
    00:00 +13°C° 0 mm 3 mps 741 mmHg 69%
    01:00 +13°C° 0 mm 3 mps 741 mmHg 70%
    02:00 +12°C° 0 mm 3 mps 740 mmHg 71%
    03:00 +12°C° 0 mm 3 mps 740 mmHg 72%
    04:00 +12°C° 0 mm 3 mps 740 mmHg 73%
    05:00 +11°C° 0 mm 3 mps 740 mmHg 74%
    06:00 +11°C° 0 mm 3 mps 740 mmHg 76%
    07:00 +13°C° 0 mm 3 mps 740 mmHg 70%
    08:00 +16°C° 0 mm 3 mps 739 mmHg 65%
    09:00 +18°C° 0 mm 3 mps 739 mmHg 60%
    10:00 +18°C° 0.4 mm 3 mps 739 mmHg 63%
    11:00 +17°C° 0.4 mm 3 mps 739 mmHg 65%
    12:00 +17°C° 0.4 mm 3 mps 739 mmHg 68%
    13:00 +16°C° 1.9 mm 3 mps 739 mmHg 75%
    14:00 +14°C° 1.9 mm 3 mps 739 mmHg 82%
    15:00 +13°C° 1.9 mm 3 mps 739 mmHg 89%
    16:00 +13°C° 1.9 mm 4 mps 740 mmHg 89%
    17:00 +13°C° 1.9 mm 5 mps 740 mmHg 88%
    18:00 +11°C° 1.9 mm 6 mps 740 mmHg 88%
    19:00 +10°C° 0 mm 7 mps 741 mmHg 86%
    20:00 +9°C° 0 mm 7 mps 741 mmHg 84%
    21:00 +9°C° 0 mm 7 mps 742 mmHg 82%
    22:00 +8°C° 0 mm 7 mps 742 mmHg 79%
    23:00 +8°C° 0 mm 7 mps 743 mmHg 76%

    29 April, Monday

    Time Temperature Precipitation Wind Pressure Humidity
    00:00 +6°C° 0 mm 7 mps 743 mmHg 74%
    01:00 +5°C° 0 mm 7 mps 744 mmHg 73%
    02:00 +5°C° 0 mm 7 mps 744 mmHg 72%
    03:00 +4°C° 0 mm 7 mps 745 mmHg 71%
    04:00 +4°C° 0 mm 7 mps 745 mmHg 69%
    05:00 +3°C° 0 mm 7 mps 746 mmHg 68%
    06:00 +2°C° 0 mm 7 mps 746 mmHg 66%
    07:00 +2°C° 0 mm 7 mps 747 mmHg 62%
    08:00 +3°C° 0 mm 7 mps 747 mmHg 57%
    09:00 +3°C° 0 mm 7 mps 748 mmHg 53%
    10:00 +4°C° 0 mm 7 mps 748 mmHg 50%
    11:00 +5°C° 0 mm 7 mps 748 mmHg 48%
    12:00 +5°C° 0 mm 7 mps 748 mmHg 45%
    13:00 +5°C° 0 mm 6 mps 748 mmHg 44%
    14:00 +7°C° 0 mm 6 mps 748 mmHg 44%
    15:00 +7°C° 0 mm 6 mps 747 mmHg 44%
    16:00 +7°C° 0 mm 5 mps 747 mmHg 46%
    17:00 +7°C° 0 mm 5 mps 747 mmHg 48%
    18:00 +6°C° 0 mm 5 mps 747 mmHg 49%
    19:00 +6°C° 0 mm 4 mps 747 mmHg 52%
    20:00 +5°C° 0 mm 4 mps 748 mmHg 55%
    21:00 +4°C° 0 mm 3 mps 748 mmHg 58%
    22:00 +4°C° 0 mm 3 mps 748 mmHg 59%
    23:00 +4°C° 0 mm 3 mps 748 mmHg 60%
    Show more